Olbia, Italy

2:23 PM CEST on July 23, 2017 (GMT +0200)
Costa Smeralda

Weather History for LIEO - October, 2013

Change the Weather History Date:

Friday, October 18, 2013

  Actual Average Record
Temperature  
Mean Temperature 68 °F -  
Max Temperature 75 °F 66 °F 83 °F (2014)
Min Temperature 59 °F 49 °F 46 °F (2011)
Cooling Degree Days 2    
Growing Degree Days 18 (Base 50)    
Moisture  
Dew Point 56 °F    
Average Humidity 73    
Maximum Humidity 94    
Minimum Humidity 44    
Precipitation  
Precipitation 0.00 in 0.07 in - ()
Sea Level Pressure  
Sea Level Pressure 30.05 in    
Wind  
Wind Speed 7 mph ()    
Max Wind Speed 12 mph    
Max Gust Speed -    
Averages and records for this station are not official NWS values.
T = Trace of Precipitation, MM = Missing Value Source: Averaged Metar Reports

Daily Weather History Graph

Daily Weather History Graph

Search for Another Location

Airport or City:

Trip Planner

Search our weather history database for the weather conditions in past years. The results will help you decide how hot, cold, wet, or windy it might be!

Date:

Astronomy

Oct. 18, 2013 Rise Set
Actual Time 7:36 AM CEST 6:36 PM CEST
Civil Twilight 7:08 AM CEST 7:04 PM CEST
Nautical Twilight 6:36 AM CEST 7:36 PM CEST
Astronomical Twilight 6:05 AM CEST 8:08 PM CEST
Moon 6:16 PM CEST (10/18) 6:54 AM CEST (10/18)
Length of Visible Light 11h 55m
Length of Day
11h 00m
Full, 100% of the Moon is Illuminated
Oct 18
Full
Oct 19
Full
Oct 27
Last Quarter
Nov 3
New
Nov 10
First Quarter

Hourly Weather History & Observations

Time (CEST) Temp. Dew Point Humidity Pressure Visibility Wind Dir Wind Speed Gust Speed Precip Events Conditions
12:20 AM 62.6 °F 55.4 °F 77% 30.04 in - WSW 10.4 mph - N/A   Clear
12:50 AM 62.6 °F 55.4 °F 77% 30.04 in - SSW 4.6 mph - N/A   Clear
1:20 AM 60.8 °F 55.4 °F 82% 30.04 in - SSE 4.6 mph - N/A   Clear
1:50 AM 62.6 °F 55.4 °F 77% 30.04 in - SW 10.4 mph - N/A   Clear
2:20 AM 60.8 °F 55.4 °F 82% 30.04 in - SSW 6.9 mph - N/A   Clear
2:50 AM 62.6 °F 55.4 °F 77% 30.04 in - SW 11.5 mph - N/A   Clear
3:20 AM 62.6 °F 55.4 °F 77% 30.04 in - SW 11.5 mph - N/A   Clear
3:50 AM 62.6 °F 55.4 °F 77% 30.04 in - SSW 6.9 mph - N/A   Clear
4:20 AM 60.8 °F 55.4 °F 82% 30.01 in - SW 8.1 mph - N/A   Clear
4:50 AM 60.8 °F 55.4 °F 82% 30.01 in - SSW 8.1 mph - N/A   Clear
5:20 AM 60.8 °F 55.4 °F 82% 30.01 in - SSW 9.2 mph - N/A   Clear
5:50 AM 60.8 °F 55.4 °F 82% 30.04 in - SSW 8.1 mph - N/A   Clear
6:20 AM 60.8 °F 55.4 °F 82% 30.01 in - SSW 8.1 mph - N/A   Clear
6:50 AM 60.8 °F 55.4 °F 82% 30.04 in - SSW 8.1 mph - N/A   Clear
7:20 AM 60.8 °F 55.4 °F 82% 30.04 in - SSW 8.1 mph - N/A   Clear
7:50 AM 60.8 °F 55.4 °F 82% 30.04 in - SSW 8.1 mph - N/A   Clear
8:20 AM 60.8 °F 55.4 °F 82% 30.04 in - SW 5.8 mph - N/A   Clear
8:50 AM 62.6 °F 57.2 °F 82% 30.06 in - SW 4.6 mph - N/A   Clear
9:20 AM 64.4 °F 57.2 °F 77% 30.06 in - SW 9.2 mph - N/A   Clear
9:50 AM 66.2 °F 57.2 °F 73% 30.06 in - SW 10.4 mph - N/A   Clear
10:20 AM 68.0 °F 57.2 °F 68% 30.06 in - SW 10.4 mph - N/A   Clear
10:50 AM 69.8 °F 55.4 °F 60% 30.06 in - SW 11.5 mph - N/A   Clear
11:20 AM 71.6 °F 55.4 °F 57% 30.06 in - SW 8.1 mph - N/A   Clear
11:50 AM 71.6 °F 53.6 °F 53% 30.06 in - SW 4.6 mph - N/A   Clear
12:20 PM 73.4 °F 53.6 °F 50% 30.06 in - Variable 3.5 mph - N/A   Clear
12:50 PM 73.4 °F 51.8 °F 47% 30.04 in - Variable 3.5 mph - N/A   Clear
1:20 PM 75.2 °F 51.8 °F 44% 30.04 in - SSW 3.5 mph - N/A   Clear
1:50 PM 73.4 °F 55.4 °F 53% 30.04 in - NE 9.2 mph - N/A   Clear
2:20 PM 73.4 °F 55.4 °F 53% 30.04 in - ENE 9.2 mph - N/A   Clear
2:50 PM 73.4 °F 55.4 °F 53% 30.04 in - East 8.1 mph - N/A   Clear
3:20 PM 73.4 °F 55.4 °F 53% 30.04 in - ENE 9.2 mph - N/A   Clear
3:50 PM 73.4 °F 57.2 °F 57% 30.04 in - ENE 9.2 mph - N/A   Clear
4:20 PM 71.6 °F 59.0 °F 64% 30.04 in - ENE 8.1 mph - N/A   Clear
4:50 PM 73.4 °F 59.0 °F 61% 30.04 in - ENE 6.9 mph - N/A   Clear
5:20 PM 71.6 °F 59.0 °F 64% 30.04 in - ENE 8.1 mph - N/A   Clear
5:50 PM 71.6 °F 60.8 °F 69% 30.04 in - ENE 6.9 mph - N/A   Clear
6:20 PM 69.8 °F 60.8 °F 73% 30.04 in - East 5.8 mph - N/A   Clear
6:50 PM 68.0 °F 60.8 °F 78% 30.04 in - East 4.6 mph - N/A   Clear
7:20 PM 66.2 °F 60.8 °F 83% 30.04 in - East 3.5 mph - N/A   Clear
7:50 PM 64.4 °F 59.0 °F 83% 30.06 in - Variable 1.2 mph - N/A   Clear
8:20 PM 64.4 °F 59.0 °F 83% 30.06 in - Variable 2.3 mph - N/A   Clear
8:50 PM 64.4 °F 59.0 °F 83% 30.06 in - Variable 2.3 mph - N/A   Clear
9:20 PM 62.6 °F 57.2 °F 82% 30.06 in - SSW 4.6 mph - N/A   Clear
9:50 PM 60.8 °F 57.2 °F 88% 30.06 in - SSW 5.8 mph - N/A   Clear
10:20 PM 60.8 °F 57.2 °F 88% 30.09 in - South 3.5 mph - N/A   Clear
10:50 PM 60.8 °F 57.2 °F 88% 30.09 in - South 4.6 mph - N/A   Clear
11:20 PM 60.8 °F 57.2 °F 88% 30.09 in - SSW 3.5 mph - N/A   Clear
11:50 PM 59.0 °F 57.2 °F 94% 30.09 in - SSW 2.3 mph - N/A   Clear